sat.trackr.live / text

‹ back to catalog

STARLINK-32114

NORAD 60287 · 2024-132K

PAYLOAD ACTIVE UNKNOWN

§ Identity

Operator
Country
US
Launch date
2024-07-28
Launch site
AFETR
Launch vehicle
Mass (kg)
RCS (m²)

Purposes: comms

External: N2YO · Heavens-Above · Gunter

§ Orbital elements

Epoch: 2026-05-25T00:30:58.356000Z

Period
94.01 min
Inclination
53.1617°
Eccentricity
0.0001294
Mean motion
15.31699174 rev/d
Perigee alt
469.9 km
Apogee alt
471.6 km
Semi-major
6,848.9 km
B*
2.2641e-5
RAAN
58.1217°
Arg perigee
87.8917°
Mean anomaly
272.2233°
Rev number
10,324

§ Raw data

STARLINK-321141 60287U 24132K   26145.02150875  .00000337  00000+0  22641-4 0  99922 60287  53.1617  58.1217 0001294  87.8917 272.2233 15.31699174103245

JSON: /api/v1/satellites/60287 · /tle

For live sub-satellite position, see the globe view (requires WebGL).

§ Visibility from observer

Set your observer location to see the next 7 days of passes ≥ 10°. The values pass through the URL so the page stays shareable.

No JS? Fill the form by hand. The geolocation button needs JavaScript.